Dalhart, TX

10:40 PM CDT on April 27, 2017 (GMT -0500)
Dalhart Municipal

Weather History for KDHT - June, 2013

Change the Weather History Date:

Thursday, June 20, 2013

  Actual Average Record
Temperature  
Mean Temperature 82 °F 74 °F  
Max Temperature 100 °F 89 °F 106 °F (2006)
Min Temperature 64 °F 59 °F 45 °F (1973)
Degree Days  
Heating Degree Days 0 0  
Month to date heating degree days 0 9  
Since 1 June heating degree days 0 9  
Since 1 July heating degree days 4400 4726  
Cooling Degree Days 17 9  
Month to date cooling degree days 225 137  
Year to date cooling degree days 379 209  
Since 1 June cooling degree days 225 137  
Growing Degree Days 32 (Base 50)    
Moisture  
Dew Point 50 °F    
Average Humidity 46    
Maximum Humidity 78    
Minimum Humidity 13    
Precipitation  
Precipitation 0.00 in 0.08 in 2.96 in (1975)
Month to date precipitation 0.61 1.54  
Year to date precipitation 1.91 6.95  
Snow  
Snow 0.00 in 0.00 in 0.00 in ()
Month to date snowfall 0.0 0.0  
Since 1 June snowfall 0.0 0.0  
Since 1 July snowfall 21.6 18.9  
Snow Depth 0.00 in    
Sea Level Pressure  
Sea Level Pressure 29.79 in    
Wind  
Wind Speed 19 mph (SSW)    
Max Wind Speed 38 mph    
Max Gust Speed 45 mph    
Visibility 7 miles    
Events      
T = Trace of Precipitation, MM = Missing Value Source: NWS Daily Summary

Daily Weather History Graph

Daily Weather History Graph

Search for Another Location

Airport or City:

Trip Planner

Search our weather history database for the weather conditions in past years. The results will help you decide how hot, cold, wet, or windy it might be!

Date:

Astronomy

Jun. 20, 2013 Rise Set
Actual Time 6:33 AM CDT 9:10 PM CDT
Civil Twilight 6:03 AM CDT 9:40 PM CDT
Nautical Twilight 5:25 AM CDT 10:18 PM CDT
Astronomical Twilight 4:43 AM CDT 11:00 PM CDT
Moon 6:18 PM CDT (6/20) 3:57 AM CDT (6/20)
Length of Visible Light 15h 37m
Length of Day
14h 36m
Waxing Gibbous, 89% of the Moon is Illuminated
Jun 20
Waxing Gibbous
Jun 23
Full
Jun 29
Last Quarter
Jul 8
New
Jul 15
First Quarter

Hourly Weather History & Observations

Time (CDT) Temp. Heat Index Dew Point Humidity Pressure Visibility Wind Dir Wind Speed Gust Speed Precip Events Conditions
12:53 AM 69.1 °F - 57.0 °F 65% 29.81 in 10.0 mi ENE 9.2 mph - N/A   Clear
1:53 AM 73.0 °F - 55.0 °F 53% 29.78 in 8.0 mi SSW 16.1 mph - N/A   Scattered Clouds
2:53 AM 72.0 °F - 55.0 °F 55% 29.77 in 10.0 mi SSW 17.3 mph - N/A   Clear
3:53 AM 70.0 °F - 55.9 °F 61% 29.77 in 10.0 mi SW 15.0 mph 24.2 mph N/A   Clear
4:53 AM 66.0 °F - 57.0 °F 73% 29.78 in 10.0 mi WSW 5.8 mph - N/A   Clear
5:53 AM 66.0 °F - 57.0 °F 73% 29.78 in 10.0 mi SSW 10.4 mph - N/A   Clear
6:53 AM 64.9 °F - 57.9 °F 78% 29.78 in 10.0 mi SSW 8.1 mph - N/A   Clear
7:53 AM 68.0 °F - 59.0 °F 73% 29.77 in 10.0 mi South 8.1 mph - N/A   Clear
8:53 AM 73.9 °F - 60.1 °F 62% 29.78 in 10.0 mi SW 10.4 mph - N/A   Clear
9:53 AM 80.1 °F 80.7 °F 59.0 °F 48% 29.78 in 10.0 mi WSW 13.8 mph - N/A   Clear
10:53 AM 86.0 °F 84.9 °F 57.0 °F 37% 29.77 in 10.0 mi SW 18.4 mph 25.3 mph N/A   Clear
11:53 AM 90.0 °F 87.7 °F 54.0 °F 29% 29.76 in 10.0 mi SSW 12.7 mph 20.7 mph N/A   Clear
12:53 PM 91.9 °F - 52.0 °F 26% 29.75 in 10.0 mi SSE 8.1 mph 17.3 mph N/A   Clear
1:53 PM 95.0 °F 92.5 °F 53.1 °F 24% 29.73 in 10.0 mi South 16.1 mph 26.5 mph N/A   Clear
2:53 PM 99.0 °F - 46.9 °F 17% 29.70 in 10.0 mi South 20.7 mph 28.8 mph N/A   Clear
3:53 PM 97.0 °F - 46.0 °F 18% 29.69 in 10.0 mi SSW 20.7 mph 27.6 mph N/A   Clear
4:53 PM 98.1 °F - 39.9 °F 13% 29.67 in 10.0 mi South 24.2 mph 27.6 mph N/A   Clear
5:53 PM 97.0 °F - 46.9 °F 18% 29.66 in 9.0 mi South 34.5 mph 44.9 mph N/A   Clear
6:53 PM 93.9 °F - 41.0 °F 16% 29.66 in 10.0 mi South 25.3 mph 32.2 mph N/A   Clear
7:16 PM 91.4 °F - 48.2 °F 23% 29.86 in 2.5 mi South 33.4 mph 42.6 mph N/A   Haze
7:23 PM 91.4 °F - 51.8 °F 26% 29.86 in 3.0 mi South 25.3 mph 41.4 mph N/A   Haze
7:29 PM 91.4 °F - 51.8 °F 26% 29.86 in 2.5 mi South 31.1 mph 38.0 mph N/A   Haze
7:38 PM 89.6 °F - 51.8 °F 27% 29.87 in 3.0 mi South 29.9 mph 39.1 mph N/A   Haze
7:53 PM 89.1 °F - 50.0 °F 26% 29.68 in 6.0 mi South 26.5 mph 35.7 mph N/A   Haze
8:53 PM 86.0 °F - 52.0 °F 31% 29.68 in 5.0 mi South 23.0 mph 38.0 mph N/A   Haze
9:53 PM 82.9 °F - 39.9 °F 22% 29.70 in 10.0 mi SSW 16.1 mph - N/A   Overcast
10:53 PM 79.0 °F - 43.0 °F 28% 29.77 in 1.8 mi SSW 31.1 mph 38.0 mph N/A   Haze
11:01 PM 78.8 °F - 44.6 °F 30% 29.98 in 2.0 mi SSW 31.1 mph 39.1 mph N/A   Haze
11:08 PM 77.0 °F - 44.6 °F 32% 29.99 in 2.5 mi South 33.4 mph 39.1 mph N/A   Haze
11:15 PM 77.0 °F - 44.6 °F 32% 30.00 in 3.0 mi South 35.7 mph 43.7 mph N/A   Haze
11:24 PM 77.0 °F - 44.6 °F 32% 30.00 in 2.5 mi South 35.7 mph 43.7 mph N/A   Haze
11:39 PM 78.8 °F - 44.6 °F 30% 30.00 in 4.0 mi South 33.4 mph 43.7 mph N/A   Haze
11:53 PM 77.0 °F - 45.0 °F 32% 29.79 in 3.0 mi South 33.4 mph 42.6 mph N/A   Haze